Regional Weather Roundup
Issued by NWS

Home | Current Version | Previous Version | Graphics & Text | Print | Product List | Glossary On
Versions: 1 2 3 4 5 6 7 8 9 10 11 12 13 14 15 16 17 18 19 20 21 22 23 24 25 26 27 28 29 30 31 32 33 34 35 36 37 38 39 40 41 42 43 44 45 46 47 48 49 50
000
ASUS45 KBOU 161507
RWRCO

WEATHER ROUNDUP FOR COLORADO
NATIONAL WEATHER SERVICE DENVER/BOULDER CO
800 AM MST MON JAN 16 2017

NOTE: "FAIR" INDICATES FEW OR NO CLOUDS BELOW 12000 FEET WITH NO
SIGNIFICANT WEATHER AND/OR OBSTRUCTIONS TO VISIBILITY.

COZ001>005-013-030-031-161600-
...NORTHWEST COLORADO...

CITY           SKY/WX    TMP DP  RH WIND       PRES   REMARKS
CRAIG          CLOUDY    12   8  84 W3        30.13R
HAYDEN         CLOUDY    12   9  85 W6        30.09R WCI   3
MEEKER         FAIR      13  10  88 CALM      30.09R
MOUNT WERNER   NOT AVBL
STEAMBOAT SPGS CLOUDY    19  17  93 CALM      30.08R
WALDEN           N/A    N/A N/A N/A NW5       30.05R
$$

COZ006>008-011-161600-
...WEST CENTRAL VALLEYS...

CITY           SKY/WX    TMP DP  RH WIND       PRES   REMARKS
GRAND JUNCTION MOCLDY    31  23  72 N5        30.04R WCI  26
MONTROSE       CLOUDY    31  29  92 CALM      30.04R
EAGLE          LGT SNOW  27  25  93 CALM      30.05R FOG
RIFLE          CLOUDY    29  16  58 N6        30.07R WCI  23
DELTA          CLOUDY    35  27  74 E3        30.04R
NUCLA          FAIR      32  25  74 N5        30.02R WCI  27
$$

COZ017>023-064>068-161600-
...SOUTHWEST COLORADO...

CITY           SKY/WX    TMP DP  RH WIND       PRES   REMARKS
DURANGO        CLOUDY    33  30  88 E3        29.91R
CORTEZ         FAIR      33  30  88 W6        29.93R WCI  28
PAGOSA SPRINGS LGT SNOW  32  32 100 S3        29.92R
TELLURIDE      FOG       25  25  99 W3        29.96R VSB 1/4
WOLF CREEK PAS CLOUDY    21  21 100 N8G18     29.98R WCI  12
$$

COZ009-010-012-014-032>034-037-058>063-161600-
...CENTRAL COLORADO...

CITY           SKY/WX    TMP DP  RH WIND       PRES   REMARKS
ASPEN          CLOUDY    24  23  96 NW6       29.98R WCI  17
BUENA VISTA    FOG       31  28  89 N3        29.93R VSB 1
COPPER MTN     SNOW      23  18  80 MISG      29.98R VSB<1/4
BERTHOUD PASS  NOT AVBL
COTTONWOOD PAS CLOUDY    32  28  86 SE5       29.94R HAZE    WCI  27
GUNNISON       LGT SNOW  20  19  96 CALM      29.97R FOG
KREMMLING      LGT SNOW  25  21  86 CALM      30.04R
LEADVILLE      MOCLDY    21  18  88 NW5       29.94R WCI  15
MONARCH PASS   FOG       21  19  93 MISG      30.04R VSB<1/4
SALIDA         CLOUDY    32  32  99 CALM      30.01R
SUNLIGHT       CLOUDY    19  18  93 NE7       30.02R FOG     WCI  10
WILKERSON PASS CLOUDY   N/A N/A N/A NE12G18   29.97R
$$

COZ069>075-161600-
...SAN LUIS VALLEY/SANGRE DE CRISTO MOUNTAINS...

CITY           SKY/WX    TMP DP  RH WIND       PRES   REMARKS
ALAMOSA        LGT SNOW  30  30 100 NE3       29.90R FOG
LA VETA PASS   LGT SNOW  25  23  93 SE13G22   29.92R WCI  13
SAGUACHE       CLOUDY    32  27  80 NW16      29.91R WCI  21
$$

COZ035-036-038>040-161600-
...NORTHERN COLORADO FRONT RANGE...

CITY           SKY/WX    TMP DP  RH WIND       PRES   REMARKS
DENVER INTL AP LGT SNOW  29  26  89 NW16      30.03R VSB 3/4 WCI  17
DMNS CITY PARK   N/A     29  29 100 N7G13     30.06R WCI  22
AURORA         LGT SNOW  27  27 100 NW14      30.04R VSB 3/4 WCI  16
FRONT RANGE AP LGT SNOW  30  28  93 NW14      30.03  VSB 1   WCI  20
ERIE MUNI ARPT LGT SNOW  31  31  98 CALM      30.06R VSB 3/4
BOULDER MUN AP LGT SNOW  32  32 100 SW3       30.05R VSB 3/4
CENTENNIAL     SNOW      27  25  92 N16       30.03R VSB 1/2 WCI  15
BROOMFIELD     LGT SNOW  30  30 100 N5        30.06R VSB 3/4 WCI  25
FORT COLLINS   MOCLDY    34  25  69 N10       30.06R WCI  26
LONGMONT       LGT SNOW  33  32  96 SW3       30.08R VSB 1
$$

COZ041-046-047-076>085-087-088-161600-
...PIKES PEAK/PALMER DIVIDE AND SOUTHERN FOOTHILLS...

CITY           SKY/WX    TMP DP  RH WIND       PRES   REMARKS
COLO. SPRINGS  CLOUDY    30  22  72 NW26G40   29.94R WCI  16
A. F. ACADEMY  MIX PCPN  27  23  86 N24       29.95R WCI  12
SCHRIEVER AFB  NOT AVBL
ELLICOTT       LGT RAIN N/A N/A N/A N33G44    29.89R
FALCON         FAIR      27  21  78 N31G41    29.91R WCI  10
FORT CARSON    LGT SNOW  32  25  74 NE24G35   29.91R FOG     WCI  19
LIMON          LGT SNOW  28  27  96 NW21G31   29.94R FOG     WCI  15
MONUMENT HILL  LGT SNOW  23  21  93 NW23G29   30.00R WCI   7
TRINIDAD       SNOW      31  29  92 N6        29.94R VSB 1/2 WCI  25
$$

COZ042>045-048>051-090-091-161600-
...NORTHEAST COLORADO...

CITY           SKY/WX    TMP DP  RH WIND       PRES   REMARKS
GREELEY ARPT   FLURRIES  33  25  72 N15       30.07R WCI  23
AKRON          LGT SNOW  28  26  92 N18       29.96R FOG     WCI  15
BURLINGTON     LGT SNOW  31  29  92 N16G23    29.90R VSB 1   WCI  20
WRAY           LGT SNOW N/A N/A N/A N14       29.94
STERLING       LGT SNOW  32  30  93 N14       29.99R WCI  22
HOLYOKE        LGT SNOW  34  32  93 N17G23    29.96R WCI  23
FORT MORGAN    LGT SNOW  30  28  90 N18       30.01R WCI  18
$$

COZ086-089-092>099-161600-
...SOUTHEAST COLORADO...

CITY           SKY/WX    TMP DP  RH WIND       PRES   REMARKS
PUEBLO         CLOUDY    36  28  73 N15       29.94R
LA JUNTA       LGT SNOW  33  31  92 NW10      29.94R VSB 1   WCI  25
LAMAR          LGT SNOW  32  30  92 N8        29.90R VSB 3/4 WCI  25
SPRINGFIELD      N/A     30  29  96 NW22G29   29.86R WCI  17
$$



USA.gov is the U.S. government's official web portal to all federal, state and local government web resources and services.